User: anonymous   Login
Location: Bandys
(35.4750°N, 81.0830°W)
Time: 20:02:55
(UTC-04:00)
Language:

DELTA 2 R/B (1) - Orbit

View from above orbital plane
View from above orbital plane
View from above satellite
View from above satellite

Ground track
Ground track

The orbit data is extracted from the following two-line orbital elements,

1 27665U 03005C   17082.55264237 +.00000037 +00000-0 +48478-4 0  9991
2 27665 039.5753 186.2973 0007947 065.8056 009.5494 14.28437687738596
Epoch (UTC): 23 March 2017 13:15:48
Eccentricity: 0.0007947
inclination: 39.5753°
perigee height: 791 km
apogee height: 802 km
right ascension of ascending node: 186.2973°
argument of perigee: 65.8056°
revolutions per day: 14.28437687
mean anomaly at epoch: 9.5494°
orbit number at epoch: 73859

The dashed part of the orbit path shows where the satellite is in the earth's shadow,  

DLR